www.pogodaiklimat.ru

Погода и климат >> Архив погоды >> Индия >> Sambalpur


ПОГОДА в Sambalpur

  • Прогноз погоды в Sambalpur
  • Монитор погоды в Sambalpur
  • Климат города

АРХИВ ПОГОДЫ в Sambalpur

Время (UTC), дата Ветер
(напр.,м/с)
 
Видим.   Явления Облачность Т
(С)
Тd
(С)
f
(%)
Тe
(С)
Тes
(С)
Комфортность P
(гПа)
Po
(гПа)
Тmin
(С)
Tmax
(С)
R
(мм)
R24
(мм)
S
(см)
03 11.01 штиль 0 4000 м ясно +14.0 +7.5 65 +14 +19 1018.0 1018.0 +9.1
06 11.01 штиль 0 4000 м ясно +24.4 +7.8 35 +25 +41 комфорт 1017.0 1017.0
09 11.01 штиль 0 4000 м ясно +28.0 +7.6 28 +28 +36 жарко 1013.5 1014.0
12 11.01 штиль 0 4000 м ясно +24.4 +12.6 48 +26 +26 жарко 1013.0 1013.0 +28.8
03 12.01 штиль 0 4000 м ясно +13.0 +9.9 81 +13 +18 1017.0 1017.0 +9.3
06 12.01 штиль 0 4000 м ясно +24.0 +7.2 34 +24 +40 комфорт 1016.4 1016.0
09 12.01 штиль 0 4000 м ясно +28.4 +7.2 26 +28 +36 жарко 1012.4 1012.0
12 12.01 штиль 0 4000 м 3/3 600 м
[Sc]
+24.6 +13.3 49 +27 +27 жарко 1012.2 1012.0 +29.3
03 13.01 штиль 0 4000 м ясно +13.8 +11.2 84 +13 +19 1017.5 1018.0 +10.0
06 13.01 штиль 0 4000 м ясно +24.0 +6.7 33 +24 +40 комфорт 1017.1 1017.0
09 13.01 штиль 0 4000 м ясно +27.6 +5.8 25 +27 +36 жарко 1012.9 1013.0
12 13.01 штиль 0 4000 м ясно +25.4 +13.1 46 +27 +27 жарко 1011.6 1012.0 +29.8
03 14.01 штиль 0 4000 м ясно +15.8 +10.5 71 +16 +21 1016.9 1017.0 +11.7
06 14.01 штиль 0 4000 м ясно +24.4 +8.9 37 +25 +41 комфорт 1016.9 1017.0
09 14.01 штиль 0 4000 м ясно +29.0 +8.8 28 +29 +37 жарко 1013.1 1013.0
12 14.01 штиль 0 4000 м ясно +25.4 +14.3 50 +28 +28 жарко 1012.9 1013.0 +30.2
03 15.01 штиль 0 4000 м ясно +14.0 +11.0 82 +14 +19 1018.1 1018.0 +10.5
06 15.01 штиль 0 4000 м ясно +23.6 +9.2 40 +24 +41 комфорт 1017.0 1017.0
09 15.01 штиль 0 4000 м ясно +28.6 +8.6 29 +28 +37 жарко 1012.3 1012.0
12 15.01 штиль 0 4000 м ясно +25.6 +14.2 49 +28 +28 жарко 1011.1 1011.0 +30.2
03 16.01 штиль 0 4000 м ясно +13.2 +9.3 77 +13 +18 1016.7 1017.0 +9.6
06 16.01 штиль 0 4000 м ясно +23.8 +9.5 40 +25 +41 комфорт 1016.0 1016.0
09 16.01 штиль 0 4000 м ясно +28.0 +8.2 29 +28 +37 жарко 1012.1 1012.0
12 16.01 штиль 0 4000 м ясно +25.0 +13.8 50 +27 +27 жарко 1010.8 1011.0 +29.2
03 17.01 штиль 0 4000 м ясно +13.6 +8.4 71 +13 +19 1016.8 1017.0 +8.9
06 17.01 штиль 0 4000 м ясно +24.0 +7.8 35 +24 +41 комфорт 1016.1 1016.0
09 17.01 штиль 0 4000 м ясно +28.4 +7.8 27 +28 +37 жарко 1012.5 1013.0
12 17.01 штиль 0 4000 м ясно +25.2 +12.4 45 +27 +27 жарко 1011.8 1012.0 +30.0

 

Местоположение метеостанции Sambalpur (Orissa, Индия): широта 21.47 долгота 83.97 высота над уровнем моря 148 м.

В архиве по умолчанию представлена погода в Sambalpur за последнюю неделю. Архивные данные за месяц целиком и за предыдущие месяцы, начиная с января 2011 года, Вы можете получить, выбрав интересующий диапазон дат из раскрывающегося списка и нажав кнопку "Ввод!".

Внимание! Время в таблицах - всемирное. Для получения местного времени необходимо прибавить поправку, которая в Sambalpur равна 5.5 ч.

Смотрите также архив погоды в соседних городах и на ближайших метеорологических станциях:

Погода в Hirakud (Orissa, Индия) (12 км)
Погода в Jharsuguda (Orissa, Индия) (51 км)
Погода в Sundargarh (Orissa, Индия) (73 км)
Погода в Phulbani (Orissa, Индия) (114 км)
Погода в Angul (Orissa, Индия) (137 км)
Погода в Titlagarh (Orissa, Индия) (148 км)
Погода в Keongjhargarh (Orissa, Индия) (161 км)
Погода в Bhawanipatna (Orissa, Индия) (191 км)
Погода в Bilaspur (Chhattisgarh, Индия) (199 км)
Погода в Ambikapur (Chhattisgarh, Индия) (203 км)

Пояснения к столбцам:

Ветер - указаны скорость ветра в м/с - средняя за 10 мин, порывы в срок и между сроками (в фигурных скобках) и направление, откуда дует ветер: С - северный, СВ - северо-восточный, В - восточный, ЮВ - юго-восточный, Ю - южный, ЮЗ - юго-западный, З - западный, СЗ - северо-западный.
Видимость - горизонтальная дальность видимости в метрах или километрах. При видимости от 1 до 10 км при отсутствии осадков обычно наблюдается дымка, при ухудшении видимости до 1 км и менее - туман. В сухую погоду видимость может ухудшаться дымом, пылью или мглою.
Явления - указаны атмосферные явления, наблюдавшиеся в срок или в последний час перед сроком; фигурными скобками обозначены явления, наблюдавшиеся между сроками (за 1-3 часа до срока); квадратными скобками обозначены град или гололедные отложения с указанием их диаметра в мм.
Облачность - указаны через наклонную черту общая и нижняя облачность в баллах и высота нижней границы облаков в метрах; квадратными скобками обозначены формы облаков: Ci - перистые, Cs - перисто-слоистые, Cc - перисто-кучевые, Ac - высококучевые, As - высокослоистые, Sc - слоисто-кучевые, Ns - слоисто-дождевые, Cu - кучевые, Cb - кучево-дождевые. Подробнее классификацию облаков см. в Атласе облаков (PDF).
T - Температура воздуха - температура, измеренная на высоте 2 м над землей.
Td - Температура точки росы - температура, при понижении до которой содержащийся в воздухе водяной пар достигнет насыщения.
f - Относительная влажность воздуха - влажноcть воздуха, измеренная на высоте 2 м над землей.
Te - Эффективная температура - температура, которую ощущает одетый по сезону человек в тени. Характеристика душности погоды. При расчете учитывается влияние влажности воздуха и скорости ветра на теплоощущения человека.
Tes - Эффективная температура на солнце - температура, которую ощущает человек, с поправкой на солнечный нагрев. Характеристика знойности погоды. Зависит от высоты солнца над горизонтом, облачности и скорости ветра. Ночью, в пасмурную погоду, а также при ветре 12 м/с и более поправка равна нулю.
P - Атмосферное давление - приведенное к уровню моря атмосферное давление.
Po - Атмосферное давление - измеренное на уровне метеостанции атмосферное давление.
Tmin - Минимальная температура - минимум температуры воздуха на высоте 2 м над землей.
Tmax - Максимальная температура - максимум температуры воздуха на высоте 2 м над землей.
R - Количество осадков - Количество выпавших осадков за период времени, мм. При наведении курсора мыши на число - период времени, за который выпало указанное количество осадков.
R24 - Количество осадков - Количество выпавших осадков за 24 часа, мм.
S - Снежный покров - Высота снежного покрова, см. При наведении курсора мыши на число - состояние снежного покрова и степень покрытия местности в баллах.